Location: Cherry Grove
(44.1968°N, 92.8624°W)
Time: 05:09:47
(UTC-06:00)

Amateur Radio Satellites - All Passes

Search period start: 11 December 2017 04:39
Search period end: 12 December 2017 04:39
Location: Cherry Grove, 44.1968°N, 92.8624°W

Satellite Date Start Highest point End Downlink Frequencies (MHz)
Time Altitude Azimuth
M-CUBED/EXP-1 PRIME 11 Dec 04:43:26 04:47:36 34° 297° (WNW) 04:51:35 437.505
KKS-1 11 Dec 04:47:04 04:51:32 73° 258° (WSW) 04:56:01 437.445
BEESAT 2 11 Dec 05:02:53 05:04:48 13° 35° (NE) 05:06:44 435.950
LilacSat-2 11 Dec 05:07:29 05:08:54 12° 90° (E) 05:10:19 437.200
XW-2D 11 Dec 05:26:24 05:29:09 18° 93° (E) 05:31:53 145.860 - 145.880
CUTE-I 11 Dec 05:27:52 05:31:33 19° 91° (E) 05:35:12 437.470
STRAND 1 11 Dec 05:38:04 05:41:59 23° 63° (ENE) 05:45:53 437.568
DOVE 4 11 Dec 05:41:10 05:45:43 55° 288° (WNW) 05:50:00 437.250
XW-2B 11 Dec 05:41:42 05:44:59 26° 95° (E) 05:48:15 145.730 - 145.750
STARS 11 Dec 05:42:09 05:46:23 47° 260° (W) 05:50:39 437.465
AO-7 11 Dec 05:43:32 05:50:31 31° 306° (NW) 05:57:30 .
KAITUO 1B 11 Dec 05:45:16 05:48:13 21° 94° (E) 05:51:08 145.475/437.950
FO-29 11 Dec 05:48:12 05:52:57 18° 52° (NE) 05:57:43 435.910
NUDT-PHONESAT 11 Dec 05:48:55 05:51:53 22° 94° (E) 05:54:49 437.300
AO-85 11 Dec 05:53:06 05:56:03 16° 36° (NE) 05:59:08 145.980
XW-2F 11 Dec 05:57:15 06:00:51 37° 98° (E) 06:04:26 145.980 - 146.000
XW-2C 11 Dec 06:08:26 06:12:15 56° 100° (E) 06:16:02 145.795 - 145.815
BEESAT 3 11 Dec 06:09:21 06:13:16 61° 238° (WSW) 06:17:03 437.485
PCSat 11 Dec 06:19:23 06:22:33 16° 256° (WSW) 06:25:41 145.827
YUBILEINY 11 Dec 06:29:21 06:33:01 13° 308° (NW) 06:36:42 435.215
SEEDS 11 Dec 06:31:21 06:33:59 16° 91° (E) 06:36:36 437.485
BEESAT 2 11 Dec 06:39:10 06:43:13 78° 55° (NE) 06:47:11 435.950
LilacSat-2 11 Dec 06:39:41 06:43:30 56° 286° (WNW) 06:47:18 437.200
CUTE 1.7 + AOD 2 11 Dec 06:45:15 06:49:14 36° 97° (E) 06:53:11 437.475
HO-68 11 Dec 06:46:32 06:53:18 43° 98° (E) 07:00:00 435.675
CUBEBUG 2 11 Dec 06:51:24 06:54:54 25° 95° (E) 06:58:28 437.445
XW-2D 11 Dec 06:59:54 07:03:24 34° 289° (WNW) 07:06:53 145.860 - 145.880
UWE-3 11 Dec 07:00:02 07:03:00 18° 92° (E) 07:06:00 435.000/436.395/437.385
AAUSAT CUBESAT 2 11 Dec 07:02:54 07:05:19 15° 90° (E) 07:07:43 437.432
NO-84 11 Dec 07:03:41 07:05:11 13° 125° (SE) 07:06:45 435.350 FM
CUTE-I 11 Dec 07:06:45 07:12:01 61° 289° (WNW) 07:17:14 437.470
STRAND 1 11 Dec 07:15:50 07:20:49 51° 260° (W) 07:25:49 437.568
XW-2B 11 Dec 07:15:55 07:19:04 24° 292° (WNW) 07:22:11 145.730 - 145.750
KAITUO 1B 11 Dec 07:18:52 07:22:11 29° 291° (WNW) 07:25:30 145.475/437.950
NUDT-PHONESAT 11 Dec 07:22:29 07:25:42 27° 291° (WNW) 07:28:55 437.300
XW-2A 11 Dec 07:26:25 07:29:15 24° 95° (E) 07:32:05 145.665 - 145.685
FO-29 11 Dec 07:29:00 07:36:37 71° 71° (ENE) 07:44:27 435.910
XW-2F 11 Dec 07:32:05 07:34:40 18° 294° (WNW) 07:37:15 145.980 - 146.000
AO-85 11 Dec 07:32:23 07:37:09 80° 55° (NE) 07:42:16 145.980
ZACube-1 11 Dec 07:33:55 07:37:19 22° 94° (E) 07:40:45 437.345
XW-2C 11 Dec 07:44:13 07:45:57 13° 297° (WNW) 07:47:41 145.795 - 145.815
Oscar 11 11 Dec 08:00:36 08:04:12 25° 94° (E) 08:07:47 .
SEEDS 11 Dec 08:05:49 08:09:56 48° 287° (WNW) 08:14:00 437.485
AO-73 11 Dec 08:09:51 08:14:01 47° 99° (E) 08:18:15 145.935
BEESAT 2 11 Dec 08:19:34 08:20:18 10° 252° (WSW) 08:21:00 435.950
CUTE 1.7 + AOD 2 11 Dec 08:21:30 08:24:51 22° 294° (WNW) 08:28:10 437.475
CUBEBUG 2 11 Dec 08:27:50 08:31:31 30° 291° (WNW) 08:35:16 437.445
HO-68 11 Dec 08:34:23 08:40:58 41° 297° (WNW) 08:47:33 435.675
UWE-3 11 Dec 08:35:37 08:39:39 43° 288° (WNW) 08:43:45 435.000/436.395/437.385
AAUSAT CUBESAT 2 11 Dec 08:37:00 08:41:03 49° 287° (WNW) 08:45:03 437.432
NO-84 11 Dec 08:38:49 08:41:55 65° 324° (NW) 08:45:20 435.350 FM
DELFI C3 11 Dec 08:42:31 08:44:25 13° 90° (E) 08:46:18 145.870
XW-2A 11 Dec 08:59:12 09:01:49 21° 292° (WNW) 09:04:26 145.665 - 145.685
TIGRISAT 11 Dec 09:03:03 09:07:21 72° 75° (ENE) 09:11:37 435.000
O/OREOS (USA 219) 11 Dec 09:05:04 09:09:33 56° 109° (ESE) 09:14:03 437.305
UNISAT 6 11 Dec 09:05:11 09:09:31 83° 78° (ENE) 09:13:49 437.425
ZACube-1 11 Dec 09:09:45 09:13:40 35° 290° (WNW) 09:17:40 437.345
AO-85 11 Dec 09:14:21 09:17:05 15° 250° (WSW) 09:19:54 145.980
FO-29 11 Dec 09:15:54 09:22:10 27° 270° (W) 09:28:38 435.910
PRISM 11 Dec 09:21:22 09:25:14 38° 70° (ENE) 09:29:07 437.425
AIST 2D 11 Dec 09:25:28 09:26:53 12° 64° (ENE) 09:28:18 435.315
Oscar 11 11 Dec 09:36:28 09:40:21 32° 291° (WNW) 09:44:14 .
Max Valier Satellite 11 Dec 09:40:24 09:43:56 40° 98° (E) 09:47:26 145.860
QB50P2 11 Dec 09:46:25 09:47:10 10° 59° (ENE) 09:47:55 145.880/145.840
AO-73 11 Dec 09:46:58 09:49:55 18° 295° (WNW) 09:52:54 145.935
DELFI C3 11 Dec 10:15:36 10:19:27 51° 287° (WNW) 10:23:16 145.870
NO-84 11 Dec 10:17:20 10:19:46 18° 346° (NNW) 10:22:21 435.350 FM
EO-88 11 Dec 10:17:35 10:21:16 81° 103° (ESE) 10:24:56 145.990 - 145.960
NANOSAT C BR1 11 Dec 10:19:42 10:22:37 19° 64° (ENE) 10:25:31 145.865
EO-79 11 Dec 10:31:36 10:35:08 27° 68° (ENE) 10:38:41 145.935-145.965
TIGRISAT 11 Dec 10:43:27 10:44:31 11° 271° (W) 10:45:35 435.000
O/OREOS (USA 219) 11 Dec 10:46:04 10:49:19 19° 308° (NW) 10:52:35 437.305
POLYITAN 1 11 Dec 10:52:58 10:56:57 45° 71° (ENE) 11:00:57 437.675
AIST 2D 11 Dec 10:56:14 10:59:36 47° 260° (W) 11:03:02 435.315
PRISM 11 Dec 10:57:36 11:00:38 19° 267° (W) 11:03:41 437.425
LO-87 11 Dec 11:00:52 11:04:03 31° 97° (E) 11:07:14 145.935 - 145.965
ESTCUBE 1 11 Dec 11:07:32 11:11:34 31° 96° (E) 11:15:34 437.505/2401.250
Max Valier Satellite 11 Dec 11:15:09 11:17:25 16° 295° (WNW) 11:19:40 145.860
QB50P2 11 Dec 11:18:05 11:22:17 85° 255° (WSW) 11:26:31 145.880/145.840
DUCHIFAT 1 11 Dec 11:29:33 11:33:43 88° 80° (E) 11:37:54 145.980
Oscar 19 11 Dec 11:29:54 11:33:15 18° 60° (ENE) 11:36:37 437.125/150
Gurwin Techsat 1B 11 Dec 11:41:15 11:44:38 17° 59° (ENE) 11:48:01 435.225
NANOSAT C BR1 11 Dec 11:54:02 11:58:00 42° 261° (W) 12:01:59 145.865
NO-84 11 Dec 11:55:53 11:58:09 16° 8° (N) 12:00:32 435.350 FM
AO-91 11 Dec 11:59:04 12:03:16 28° 68° (ENE) 12:07:10 145.960
nSIGHT-1 11 Dec 12:03:34 12:05:42 17° 134° (SE) 12:07:51 .
EO-79 11 Dec 12:07:13 12:10:49 27° 264° (W) 12:14:26 145.935-145.965
BUGSAT 1 11 Dec 12:25:18 12:29:22 88° 77° (ENE) 12:33:26 437.445
POLYITAN 1 11 Dec 12:30:16 12:32:57 16° 268° (W) 12:35:39 437.675
ISS 11 Dec 12:31:04 12:33:45 23° 136° (SE) 12:36:27 437.550
SPROUT 11 Dec 12:31:39 12:35:51 58° 100° (E) 12:40:00 437.525
LO-87 11 Dec 12:34:50 12:37:13 17° 294° (WNW) 12:39:36 145.935 - 145.965
YUBILEINY 11 Dec 12:38:09 12:43:46 18° 57° (ENE) 12:49:19 435.215
ESTCUBE 1 11 Dec 12:44:23 12:48:17 29° 293° (WNW) 12:52:10 437.505/2401.250
VELOX 1 11 Dec 12:57:41 13:02:05 65° 101° (ESE) 13:06:27 145.980
AO-7 11 Dec 13:00:11 13:06:48 28° 52° (NE) 13:13:26 .
Oscar 19 11 Dec 13:06:55 13:12:00 68° 258° (WSW) 13:17:10 437.125/150
Gurwin Techsat 1B 11 Dec 13:18:40 13:23:58 74° 257° (WSW) 13:29:19 435.225
50 SAT 11 Dec 13:25:04 13:27:42 24° 96° (E) 13:30:19 437.505
NO-84 11 Dec 13:32:50 13:36:17 33° 27° (NNE) 13:39:57 435.350 FM
AO-91 11 Dec 13:34:55 13:39:35 36° 262° (W) 13:43:54 145.960
nSIGHT-1 11 Dec 13:38:23 13:41:35 69° 331° (NNW) 13:44:49 .
RS-15 11 Dec 13:47:39 13:57:20 29° 102° (ESE) 14:06:56 29.354- 29.394
M-CUBED/EXP-1 PRIME 11 Dec 13:55:20 13:59:21 42° 65° (ENE) 14:03:38 437.505
UKube-1 11 Dec 13:57:43 14:01:45 37° 98° (E) 14:05:44 .
DX 1 11 Dec 14:05:16 14:09:38 74° 103° (ESE) 14:13:57 434.975-435.025
ISS 11 Dec 14:06:48 14:10:02 53° 334° (NNW) 14:13:17 437.550
SPROUT 11 Dec 14:08:53 14:11:16 15° 298° (WNW) 14:13:38 437.525
ITAMSAT 1 11 Dec 14:11:31 14:16:06 32° 65° (ENE) 14:20:40 435.822/435.867
MOZHAYETS 4 11 Dec 14:21:36 14:24:31 16° 91° (E) 14:27:26
YUBILEINY 11 Dec 14:33:21 14:42:14 78° 80° (E) 14:51:01 435.215
VELOX 1 11 Dec 14:35:37 14:38:00 14° 299° (WNW) 14:40:23 145.980
ITUPSAT 1 11 Dec 14:35:50 14:38:38 15° 91° (E) 14:41:25 437.325
AO-7 11 Dec 14:50:27 14:58:45 79° 253° (WSW) 15:07:09 .
50 SAT 11 Dec 14:57:21 14:59:30 17° 293° (WNW) 15:01:38 437.505
NO-84 11 Dec 15:09:56 15:13:42 47° 224° (SW) 15:17:40 435.350 FM
DOVE 4 11 Dec 15:10:28 15:14:35 23° 64° (ENE) 15:18:35 437.250
nSIGHT-1 11 Dec 15:15:32 15:18:12 23° 350° (N) 15:20:53 .
M-CUBED/EXP-1 PRIME 11 Dec 15:30:38 15:33:53 21° 263° (W) 15:37:19 437.505
UKube-1 11 Dec 15:34:12 15:37:32 22° 295° (WNW) 15:40:50 .
CUBESAT XI-V 11 Dec 15:34:33 15:38:18 23° 93° (E) 15:42:00 437.345
DX 1 11 Dec 15:43:19 15:45:12 13° 300° (WNW) 15:47:05 434.975-435.025
ISS 11 Dec 15:44:20 15:47:01 22° 353° (N) 15:49:43 437.550
BEESAT 11 Dec 15:46:15 15:51:02 77° 104° (ESE) 15:55:47 436.000
ITAMSAT 1 11 Dec 15:50:42 15:55:28 35° 263° (W) 16:00:15 435.822/435.867
RS-15 11 Dec 15:56:01 16:08:24 87° 304° (NW) 16:20:41 29.354- 29.394
MOZHAYETS 4 11 Dec 15:57:29 16:02:00 55° 287° (WNW) 16:06:30
XW-2D 11 Dec 16:10:15 16:11:46 12° 63° (ENE) 16:13:18 145.860 - 145.880
ITUPSAT 1 11 Dec 16:12:09 16:16:52 62° 288° (WNW) 16:21:34 437.325
XW-2B 11 Dec 16:24:55 16:27:23 17° 65° (ENE) 16:29:51 145.730 - 145.750
KAITUO 1B 11 Dec 16:27:34 16:29:23 13° 63° (ENE) 16:31:12 145.475/437.950
NUDT-PHONESAT 11 Dec 16:30:21 16:32:07 13° 64° (ENE) 16:33:53 437.300
YUBILEINY 11 Dec 16:31:30 16:38:02 24° 281° (W) 16:44:33 435.215
SO-50 11 Dec 16:34:59 16:39:25 78° 124° (SE) 16:43:57 436.795
KKS-1 11 Dec 16:37:14 16:40:22 19° 93° (E) 16:43:28 437.445
XW-2F 11 Dec 16:39:37 16:42:36 23° 68° (ENE) 16:45:36 145.980 - 146.000
DOVE 4 11 Dec 16:46:44 16:51:53 52° 261° (W) 16:56:58 437.250
AO-7 11 Dec 16:48:01 16:52:47 16° 272° (W) 16:57:35 .
CUTE-I 11 Dec 16:50:41 16:55:32 36° 67° (ENE) 17:00:25 437.470
XW-2C 11 Dec 16:50:58 16:54:21 32° 70° (ENE) 16:57:47 145.795 - 145.815
nSIGHT-1 11 Dec 16:52:25 16:55:08 24° 11° (N) 16:57:50 .
CUBESAT XI-V 11 Dec 17:11:22 17:15:48 41° 290° (WNW) 17:20:11 437.345
HO-68 11 Dec 17:16:50 17:23:18 38° 62° (ENE) 17:29:48 435.675
ISS 11 Dec 17:21:20 17:24:13 27° 14° (NNE) 17:27:06 437.550
LilacSat-2 11 Dec 17:22:21 17:26:09 86° 77° (ENE) 17:30:01 437.200
SEEDS 11 Dec 17:24:56 17:27:13 14° 62° (ENE) 17:29:29 437.485
BEESAT 11 Dec 17:25:42 17:28:10 14° 301° (WNW) 17:30:39 436.000
STARS 11 Dec 17:29:59 17:33:39 26° 95° (E) 17:37:19 437.465
O/OREOS (USA 219) 11 Dec 17:35:11 17:38:16 18° 51° (NE) 17:41:19 437.305
CUTE 1.7 + AOD 2 11 Dec 17:39:10 17:42:55 31° 69° (ENE) 17:46:41 437.475
XW-2D 11 Dec 17:41:44 17:45:27 57° 260° (W) 17:49:12 145.860 - 145.880
CUBEBUG 2 11 Dec 17:51:04 17:54:31 25° 68° (ENE) 17:57:57 437.445
AAUSAT CUBESAT 2 11 Dec 17:55:02 17:57:00 13° 62° (ENE) 17:58:57 437.432
XW-2B 11 Dec 17:57:43 18:01:15 38° 262° (W) 18:04:50 145.730 - 145.750
UWE-3 11 Dec 17:58:56 18:01:42 18° 65° (ENE) 18:04:28 435.000/436.395/437.385
KAITUO 1B 11 Dec 17:59:17 18:02:55 50° 261° (W) 18:06:35 145.475/437.950
XW-2A 11 Dec 18:00:34 18:01:32 11° 64° (ENE) 18:02:31 145.665 - 145.685
NUDT-PHONESAT 11 Dec 18:01:57 18:05:32 48° 261° (W) 18:09:08 437.300
RS-15 11 Dec 18:11:37 18:22:46 37° 332° (NNW) 18:33:41 29.354- 29.394
KKS-1 11 Dec 18:12:54 18:17:07 44° 290° (WNW) 18:21:19 437.445
XW-2F 11 Dec 18:13:21 18:16:34 27° 265° (W) 18:19:50 145.980 - 146.000
SO-50 11 Dec 18:17:16 18:20:26 18° 323° (NW) 18:23:38 436.795
XW-2C 11 Dec 18:25:55 18:28:36 19° 267° (W) 18:31:20 145.795 - 145.815
nSIGHT-1 11 Dec 18:28:30 18:31:43 74° 30° (NNE) 18:34:55 .
CUTE-I 11 Dec 18:30:48 18:35:34 32° 264° (W) 18:40:24 437.470
ZACube-1 11 Dec 18:31:33 18:34:36 20° 66° (ENE) 18:37:40 437.345
Oscar 11 11 Dec 18:56:54 19:00:19 23° 66° (ENE) 19:03:45 .
ISS 11 Dec 18:57:41 19:00:59 81° 212° (SSW) 19:04:15 437.550
SEEDS 11 Dec 18:58:14 19:02:24 60° 260° (W) 19:06:36 437.485
HO-68 11 Dec 19:04:00 19:10:53 47° 261° (W) 19:17:48 435.675
STARS 11 Dec 19:06:09 19:09:59 31° 293° (WNW) 19:13:49 437.465
AO-73 11 Dec 19:06:43 19:10:35 41° 71° (ENE) 19:14:29 145.935
O/OREOS (USA 219) 11 Dec 19:13:38 19:18:04 58° 251° (WSW) 19:22:27 437.305
CUTE 1.7 + AOD 2 11 Dec 19:15:14 19:18:44 25° 266° (W) 19:22:17 437.475
PCSat 11 Dec 19:17:21 19:22:34 52° 115° (ESE) 19:27:50 145.827
STRAND 1 11 Dec 19:24:32 19:29:29 48° 99° (E) 19:34:23 437.568
CUBEBUG 2 11 Dec 19:27:19 19:31:03 30° 264° (W) 19:34:45 437.445
AAUSAT CUBESAT 2 11 Dec 19:27:45 19:31:54 65° 259° (W) 19:36:05 437.432
XW-2A 11 Dec 19:30:34 19:33:48 47° 261° (W) 19:37:03 145.665 - 145.685
DELFI C3 11 Dec 19:30:41 19:31:19 10° 61° (ENE) 19:31:56 145.870
UWE-3 11 Dec 19:33:51 19:37:51 44° 261° (W) 19:41:50 435.000/436.395/437.385
BEESAT 3 11 Dec 20:01:25 20:03:33 14° 110° (ESE) 20:05:41 437.485
nSIGHT-1 11 Dec 20:05:36 20:07:34 15° 227° (SW) 20:09:31 .
ZACube-1 11 Dec 20:06:50 20:10:40 36° 263° (W) 20:14:31 437.345
Max Valier Satellite 11 Dec 20:20:48 20:23:41 22° 68° (ENE) 20:26:36 145.860
FO-29 11 Dec 20:23:11 20:30:12 55° 98° (E) 20:36:22 435.910
RS-15 11 Dec 20:29:56 20:39:55 28° 6° (N) 20:49:34 29.354- 29.394
Oscar 11 11 Dec 20:32:20 20:36:16 34° 263° (W) 20:40:14 .
ISS 11 Dec 20:35:58 20:36:57 11° 229° (SW) 20:37:56 437.550
AO-73 11 Dec 20:44:16 20:47:01 17° 268° (W) 20:49:48 145.935
TIGRISAT 11 Dec 20:54:19 20:56:19 13° 90° (E) 20:58:20 435.000
EO-88 11 Dec 20:56:13 20:59:37 40° 72° (ENE) 21:03:04 145.990 - 145.960
UNISAT 6 11 Dec 20:56:13 20:58:44 15° 91° (E) 21:01:16 437.425
DELFI C3 11 Dec 21:01:26 21:05:25 78° 257° (WSW) 21:09:26 145.870
PCSat 11 Dec 21:01:36 21:06:14 28° 314° (NW) 21:10:55 145.827
STRAND 1 11 Dec 21:04:23 21:08:21 23° 297° (WNW) 21:12:19 437.568
BEESAT 3 11 Dec 21:36:40 21:40:37 59° 308° (NW) 21:44:34 437.485
LO-87 11 Dec 21:38:46 21:41:06 17° 66° (ENE) 21:43:27 145.935 - 145.965
AO-85 11 Dec 21:50:32 21:52:42 14° 109° (ESE) 21:54:54 145.980
Max Valier Satellite 11 Dec 21:54:20 21:57:24 25° 265° (W) 22:00:29 145.860
ESTCUBE 1 11 Dec 22:08:17 22:12:19 34° 69° (ENE) 22:16:24 437.505/2401.250
BEESAT 2 11 Dec 22:08:19 22:12:20 86° 124° (SE) 22:16:25 435.950
FO-29 11 Dec 22:08:41 22:14:48 31° 300° (WNW) 22:20:20 435.910
AIST 2D 11 Dec 22:21:15 22:22:18 11° 90° (E) 22:23:20 435.315
TIGRISAT 11 Dec 22:29:08 22:33:23 62° 286° (WNW) 22:37:42 435.000
EO-88 11 Dec 22:31:30 22:33:27 14° 269° (W) 22:35:25 145.990 - 145.960
UNISAT 6 11 Dec 22:31:32 22:35:45 53° 287° (WNW) 22:40:01 437.425
PRISM 11 Dec 22:35:48 22:39:49 49° 100° (E) 22:43:46 437.425
RS-15 11 Dec 22:44:42 22:56:15 49° 39° (NE) 23:07:09 29.354- 29.394
QB50P2 11 Dec 23:02:40 23:04:53 14° 90° (E) 23:07:05 145.880/145.840
LO-87 11 Dec 23:11:03 23:14:16 32° 263° (W) 23:17:29 145.935 - 145.965
DUCHIFAT 1 11 Dec 23:13:37 23:15:21 12° 90° (E) 23:17:04 145.980
BEESAT 3 11 Dec 23:17:59 23:18:58 11° 327° (NNW) 23:19:58 437.485
SO-50 11 Dec 23:24:56 23:28:17 19° 37° (NE) 23:31:39 436.795
SPROUT 11 Dec 23:25:56 23:30:03 52° 72° (ENE) 23:34:11 437.525
AO-85 11 Dec 23:28:42 23:32:34 55° 309° (NW) 23:36:40 145.980
NANOSAT C BR1 11 Dec 23:36:41 23:40:11 25° 95° (E) 23:43:41 145.865
ESTCUBE 1 11 Dec 23:45:25 23:49:10 25° 266° (W) 23:52:56 437.505/2401.250
BEESAT 2 11 Dec 23:48:15 23:50:37 15° 323° (NW) 23:52:59 435.950
EO-79 11 Dec 23:49:26 23:53:24 39° 98° (E) 23:57:21 145.935-145.965
FALCONSAT 3 11 Dec 23:51:14 23:53:00 13° 162° (SSE) 23:54:46 435.103
AIST 2D 11 Dec 23:52:17 23:55:44 48° 286° (WNW) 23:59:09 435.315
50 SAT 11 Dec 23:54:34 23:55:09 10° 64° (ENE) 23:55:44 437.505
VELOX 1 11 Dec 23:55:50 00:00:15 69° 74° (ENE) 00:04:43 145.980
BUGSAT 1 12 Dec 00:07:46 00:08:40 11° 89° (E) 00:09:34 437.445
POLYITAN 1 12 Dec 00:11:21 00:15:34 70° 102° (ESE) 00:19:46 437.675
PRISM 12 Dec 00:12:09 00:14:41 16° 297° (WNW) 00:17:12 437.425
QB50P2 12 Dec 00:36:52 00:41:00 55° 287° (WNW) 00:45:07 145.880/145.840
DUCHIFAT 1 12 Dec 00:47:15 00:51:23 62° 287° (WNW) 00:55:31 145.980
UKube-1 12 Dec 00:53:16 00:57:17 39° 69° (ENE) 01:01:19 .
RS-15 12 Dec 00:57:40 01:09:10 62° 245° (WSW) 01:20:04 29.354- 29.394
DX 1 12 Dec 01:01:44 01:06:07 78° 75° (ENE) 01:10:30 434.975-435.025
SPROUT 12 Dec 01:03:48 01:06:14 15° 269° (W) 01:08:40 437.525
SO-50 12 Dec 01:04:37 01:09:17 79° 237° (WSW) 01:14:00 436.795
NANOSAT C BR1 12 Dec 01:12:13 01:15:52 29° 292° (WNW) 01:19:31 145.865
AO-85 12 Dec 01:12:56 01:13:59 11° 331° (NNW) 01:15:03 145.980
Oscar 19 12 Dec 01:16:56 01:21:46 37° 97° (E) 01:26:34 437.125/150
BEESAT 12 Dec 01:19:06 01:21:29 14° 59° (ENE) 01:23:52 436.000
50 SAT 12 Dec 01:23:38 01:26:42 44° 260° (W) 01:29:47 437.505
AO-91 12 Dec 01:23:39 01:26:56 33° 97° (E) 01:30:03 145.960
MOZHAYETS 4 12 Dec 01:24:57 01:28:12 20° 64° (ENE) 01:31:27
EO-79 12 Dec 01:25:49 01:28:53 20° 295° (WNW) 01:31:58 145.935-145.965
FALCONSAT 3 12 Dec 01:28:35 01:31:23 21° 177° (S) 01:34:11 435.103
Gurwin Techsat 1B 12 Dec 01:33:26 01:38:24 39° 98° (E) 01:43:21 435.225
VELOX 1 12 Dec 01:35:18 01:37:09 12° 271° (W) 01:39:01 145.980
BUGSAT 1 12 Dec 01:40:26 01:44:26 66° 286° (WNW) 01:48:27 437.445
YUBILEINY 12 Dec 01:43:36 01:48:54 18° 75° (ENE) 01:54:11 435.215
ITUPSAT 1 12 Dec 01:43:43 01:47:23 23° 63° (ENE) 01:51:03 437.325
POLYITAN 1 12 Dec 01:48:59 01:50:47 13° 299° (WNW) 01:52:35 437.675
PCSat 12 Dec 02:21:32 02:24:19 14° 33° (NNE) 02:27:06 145.827
UKube-1 12 Dec 02:30:11 02:33:25 20° 266° (W) 02:36:41 .
CUBESAT XI-V 12 Dec 02:39:09 02:43:02 27° 66° (ENE) 02:46:57 437.345
DX 1 12 Dec 02:41:57 02:42:49 10° 271° (W) 02:43:41 434.975-435.025
AO-7 12 Dec 02:50:45 02:58:02 32° 96° (E) 03:05:17 .
BEESAT 12 Dec 02:53:52 02:58:36 79° 255° (WSW) 03:03:24 436.000
Oscar 19 12 Dec 02:56:28 03:00:57 30° 295° (WNW) 03:05:25 437.125/150
MOZHAYETS 4 12 Dec 03:00:37 03:05:00 48° 261° (W) 03:09:26
AO-91 12 Dec 03:01:03 03:03:08 15° 296° (WNW) 03:05:08 145.960
M-CUBED/EXP-1 PRIME 12 Dec 03:06:37 03:10:22 25° 99° (E) 03:13:57 437.505
FALCONSAT 3 12 Dec 03:07:26 03:09:49 16° 193° (SSW) 03:12:12 435.103
Gurwin Techsat 1B 12 Dec 03:13:38 03:18:12 30° 295° (WNW) 03:22:46 435.225
RS-15 12 Dec 03:14:34 03:18:47 13° 268° (W) 03:22:57 29.354- 29.394
ITUPSAT 1 12 Dec 03:20:23 03:24:55 44° 261° (W) 03:29:29 437.325
YUBILEINY 12 Dec 03:35:27 03:44:15 84° 97° (E) 03:53:10 435.215
KKS-1 12 Dec 03:36:35 03:40:01 22° 64° (ENE) 03:43:28 437.445
ITAMSAT 1 12 Dec 04:01:17 04:06:29 71° 103° (ESE) 04:11:37 435.822/435.867
PCSat 12 Dec 04:03:31 04:08:54 59° 55° (NE) 04:14:14 145.827
BEESAT 3 12 Dec 04:15:05 04:17:47 17° 40° (NE) 04:20:27 437.485
CUBESAT XI-V 12 Dec 04:16:02 04:20:15 35° 263° (W) 04:24:33 437.345
STARS 12 Dec 04:27:47 04:31:35 29° 67° (ENE) 04:35:23 437.465
